Tracking 29091 objects as of 17-Jul-2024
HD Live streaming from Space Station
objects crossing your sky now

STARLINK-6303

Track STARLINK-6303 now!
10-day predictions
STARLINK-6303 is classified as:


NORAD ID: 56393
Int'l Code: 2023-061V
Perigee: 565.1 km
Apogee: 567.4 km
Inclination: 43.0 °
Period: 95.8 minutes
Semi major axis: 6937 km
RCS: Unknown
Launch date: May 4, 2023
Source: United States (US)
Launch site: AIR FORCE EASTERN TEST RANGE (AFETR)
Your satellite tracking list
Your tracking list is empty




NASA's NSSDC Master Catalog

Two Line Element Set (TLE):
1 56393U 23061V   24199.15825283  .00000783  00000-0  73021-4 0  9992
2 56393  43.0016 220.1921 0001588 249.1667 110.9005 15.02526130 66717
Source of the keplerian elements: AFSPC